EW9027 Weather Reports


time (UTC)temp
C
wind
direction
speed
KPH
gust
KPH
rain 1hr
cm
rain 24hr
cm
rain mn
cm
humidity
%
barometer
mb
20260503004600 6 202 0.0 3.2 0.00 0.00 0.00 76 1019.0
20260503003105 6 219 0.0 1.6 0.00 0.00 0.00 75 1019.0
20260503001553 7 215 0.0 1.6 0.00 0.00 0.00 74 1019.2
20260502234548 7 237 0.0 1.6 0.00 0.00 0.00 71 1019.4
20260502233050 7 238 0.0 0.0 0.00 0.00 0.00 71 1019.5
20260502231546 8 238 0.0 1.6 0.00 0.00 0.00 70 1019.6
20260502230042 8 238 0.0 1.6 0.00 0.00 0.00 70 1019.6
20260502224538 8 263 0.0 0.0 0.00 0.00 0.00 68 1019.7
20260502223036 9 264 0.0 1.6 0.00 0.00 0.00 66 1019.8
20260502221533 10 220 0.0 1.6 0.00 0.00 0.00 63 1019.8
20260502220032 10 221 0.0 4.8 0.00 0.00 0.00 65 1019.8
20260502214530 10 263 1.6 4.8 0.00 0.00 0.00 64 1019.8
20260502213034 11 229 1.6 3.2 0.00 0.00 0.00 62 1019.9
20260502211529 11 250 0.0 3.2 0.00 0.00 0.00 60 1019.9
20260502210028 11 221 0.0 1.6 0.00 0.00 0.00 59 1019.9
20260502204529 12 222 0.0 3.2 0.00 0.00 0.00 57 1020.0
20260502203028 12 205 0.0 3.2 0.00 0.00 0.00 56 1020.1
20260502201527 13 207 0.0 3.2 0.00 0.00 0.00 55 1020.0
20260502200035 13 190 1.6 4.8 0.00 0.00 0.00 54 1020.0
20260502194528 14 210 1.6 6.4 0.00 0.00 0.00 51 1020.0
20260502193025 15 198 1.6 6.4 0.00 0.00 0.00 49 1020.0
20260502191524 15 225 1.6 4.8 0.00 0.00 0.00 48 1020.0
20260502190024 16 257 1.6 4.8 0.00 0.00 0.00 45 1020.0
20260502184531 17 238 1.6 6.4 0.00 0.00 0.00 40 1019.9
20260502183023 18 184 0.0 3.2 0.00 0.00 0.00 38 1019.9
20260502181522 19 179 0.0 4.8 0.00 0.00 0.00 36 1019.8
20260502163022 23 91 1.6 4.8 0.00 0.00 0.00 26 1020.1
20260502161513 23 205 1.6 6.4 0.00 0.00 0.00 26 1020.4
20260502151506 25 97 0.0 6.4 0.00 0.00 0.00 23 1021.1
20260502123054 22 255 4.8 11.3 0.00 0.00 0.00 28 1023.1
20260502121542 22 98 1.6 8.0 0.00 0.00 0.00 25 1023.3
20260502114537 22 214 1.6 6.4 0.00 0.00 0.00 25 1023.6
20260502113039 21 219 0.0 9.7 0.00 0.00 0.00 27 1023.8
20260502111544 21 120 4.8 16.1 0.00 0.00 0.00 27 1024.0
20260502110031 22 276 4.8 9.7 0.00 0.00 0.00 26 1024.3
20260502104528 22 221 3.2 8.0 0.00 0.00 0.00 28 1024.4
20260502103025 21 55 1.6 6.4 0.00 0.00 0.00 31 1024.6
20260502101522 21 42 1.6 9.7 0.00 0.00 0.00 32 1024.8
20260502091513 20 316 3.2 9.7 0.00 0.00 0.00 36 1025.4
20260502070048 16 88 1.6 3.2 0.00 0.00 0.00 49 1026.4
20260502064543 15 61 1.6 3.2 0.00 0.00 0.00 53 1026.5
20260502063055 13 113 0.0 3.2 0.00 0.00 0.00 57 1026.6
20260502061542 13 207 0.0 1.6 0.00 0.00 0.00 57 1026.7
20260502060036 11 107 0.0 1.6 0.00 0.00 0.00 63 1026.7
20260502054529 9 219 0.0 3.2 0.00 0.00 0.00 67 1026.7
20260502053027 8 200 0.0 1.6 0.00 0.00 0.00 67 1026.7
20260502051525 8 198 0.0 1.6 0.00 0.00 0.00 69 1026.7
20260502050021 7 203 0.0 1.6 0.00 0.00 0.00 71 1026.8
20260502044518 6 203 0.0 1.6 0.00 0.00 0.00 76 1026.7
20260502043019 4 203 0.0 3.2 0.00 0.00 0.00 81 1026.7
20260502041519 3 195 0.0 1.6 0.00 0.00 0.00 83 1026.7
20260502040017 2 215 0.0 1.6 0.00 0.00 0.00 86 1026.7
20260502034516 2 193 0.0 0.0 0.00 0.00 0.00 86 1026.7
20260502033018 2 205 0.0 1.6 0.00 0.00 0.00 86 1026.7
20260502031512 2 205 0.0 1.6 0.00 0.00 0.00 85 1026.7
20260502030019 2 210 0.0 1.6 0.00 0.00 0.00 85 1026.8
20260502024507 2 206 0.0 0.0 0.00 0.00 0.00 85 1026.9
20260502023007 3 206 0.0 0.0 0.00 0.00 0.00 85 1027.0
20260502021503 3 206 0.0 1.6 0.00 0.00 0.00 84 1027.1
20260502020001 3 180 0.0 1.6 0.00 0.00 0.00 84 1027.1
20260502014559 3 176 0.0 0.0 0.00 0.00 0.00 83 1027.2
20260502013059 3 177 0.0 1.6 0.00 0.00 0.00 83 1027.2
20260502011556 3 203 0.0 4.8 0.00 0.00 0.00 83 1027.3
20260502010053 3 208 0.0 3.2 0.00 0.00 0.00 83 1027.4